Minot, ND

10:15 PM CDT on September 21, 2017 (GMT -0500)
Minot International

Weather History for KMOT - January, 2014

Change the Weather History Date:

Tuesday, January 7, 2014

  Actual Average Record
Temperature  
Mean Temperature -7 °F 12 °F  
Max Temperature 1 °F 20 °F 56 °F (1914)
Min Temperature -15 °F 3 °F -34 °F (1937)
Degree Days  
Heating Degree Days 72 53  
Month to date heating degree days 477 371  
Since 1 July heating degree days 4417 3966  
Moisture  
Dew Point -11 °F    
Average Humidity 74    
Maximum Humidity 83    
Minimum Humidity 65    
Precipitation  
Precipitation T in 0.02 in 0.48 in (1977)
Month to date precipitation 0.04 0.12  
Year to date precipitation 0.04 0.12  
Sea Level Pressure  
Sea Level Pressure 30.25 in    
Wind  
Wind Speed 7 mph (WNW)    
Max Wind Speed 14 mph    
Max Gust Speed 18 mph    
Visibility 10 miles    
Events Snow    
T = Trace of Precipitation, MM = Missing Value Source: NWS Daily Summary

Daily Weather History Graph

Daily Weather History Graph

Search for Another Location

Airport or City:

Trip Planner

Search our weather history database for the weather conditions in past years. The results will help you decide how hot, cold, wet, or windy it might be!

Date:

Astronomy

Jan. 07, 2014 Rise Set
Actual Time 8:34 AM CST 5:08 PM CST
Civil Twilight 7:58 AM CST 5:44 PM CST
Nautical Twilight 7:19 AM CST 6:23 PM CST
Astronomical Twilight 6:41 AM CST 7:01 PM CST
Moon 11:49 AM CST (1/7) 12:15 AM CST (1/7)
Length of Visible Light 9h 45m
Length of Day
8h 33m
Waxing Crescent, 46% of the Moon is Illuminated
Jan 7
Waxing Crescent
Jan 7
First Quarter
Jan 15
Full
Jan 23
Last Quarter
Jan 30
New

Hourly Weather History & Observations

Time (CST) Temp. Windchill Dew Point Humidity Pressure Visibility Wind Dir Wind Speed Gust Speed Precip Events Conditions
12:54 AM -0.9 °F -12.7 °F -7.1 °F 75% 30.12 in 7.0 mi West 5.8 mph - 0.00 in   Overcast
1:54 AM -0.0 °F -7.9 °F -6.0 °F 76% 30.09 in 10.0 mi West 3.5 mph - 0.00 in   Overcast
2:54 AM -0.0 °F - -6.0 °F 76% 30.11 in 7.0 mi Calm Calm - 0.00 in Snow Light Snow
3:54 AM -0.0 °F -11.6 °F -6.0 °F 76% 30.13 in 6.0 mi NNW 5.8 mph - 0.00 in Snow Light Snow
4:54 AM -0.9 °F -11.0 °F -7.1 °F 75% 30.14 in 10.0 mi WNW 4.6 mph - 0.00 in   Overcast
5:54 AM -6.0 °F -14.7 °F -11.0 °F 79% 30.16 in 10.0 mi NW 3.5 mph - N/A   Clear
6:54 AM -9.0 °F -22.3 °F -14.1 °F 79% 30.18 in 10.0 mi NW 5.8 mph - N/A   Clear
7:54 AM -8.0 °F -23.9 °F -11.9 °F 83% 30.19 in 10.0 mi West 8.1 mph - N/A   Clear
8:54 AM -8.0 °F -25.0 °F -13.0 °F 79% 30.21 in 10.0 mi West 9.2 mph - N/A   Clear
9:54 AM -5.1 °F -20.4 °F -9.9 °F 80% 30.23 in 10.0 mi West 8.1 mph - N/A   Clear
10:54 AM -2.9 °F -18.8 °F -9.0 °F 75% 30.26 in 10.0 mi West 9.2 mph - N/A   Clear
11:54 AM -2.0 °F -13.9 °F -9.0 °F 72% 30.24 in 10.0 mi West 5.8 mph - N/A   Clear
12:54 PM -0.9 °F -19.9 °F -8.0 °F 72% 30.25 in 10.0 mi WNW 13.8 mph - N/A   Clear
1:54 PM -0.0 °F -15.3 °F -8.0 °F 69% 30.22 in 10.0 mi WNW 9.2 mph - N/A   Clear
2:54 PM 1.0 °F -14.9 °F -8.0 °F 66% 30.22 in 10.0 mi WNW 10.4 mph - N/A   Clear
3:54 PM -0.9 °F -17.4 °F -9.9 °F 66% 30.26 in 10.0 mi NNW 10.4 mph - N/A   Clear
4:54 PM -5.1 °F -17.6 °F -11.9 °F 72% 30.29 in 10.0 mi NW 5.8 mph - N/A   Clear
5:54 PM -7.1 °F -21.4 °F -13.0 °F 75% 30.32 in 10.0 mi NW 6.9 mph - N/A   Clear
6:54 PM -8.0 °F -22.5 °F -14.1 °F 75% 30.35 in 10.0 mi WNW 6.9 mph - N/A   Clear
7:54 PM -8.0 °F -25.0 °F -14.1 °F 75% 30.37 in 10.0 mi WNW 9.2 mph - N/A   Clear
8:54 PM -9.9 °F -27.5 °F -16.1 °F 74% 30.38 in 10.0 mi WNW 9.2 mph - N/A   Clear
9:54 PM -11.0 °F -27.6 °F -17.0 °F 75% 30.38 in 10.0 mi West 8.1 mph - N/A   Clear
10:54 PM -11.9 °F -28.7 °F -17.0 °F 78% 30.39 in 10.0 mi West 8.1 mph - N/A   Clear
11:54 PM -14.1 °F -28.3 °F -20.0 °F 75% 30.41 in 10.0 mi WNW 5.8 mph - N/A   Clear